NORTHEAST SUFFOLK  -  Special Weather Statement Special Weather Statement        NORTHERN NASSAU  -  Special Weather Statement Special Weather Statement        NORTHWEST SUFFOLK  -  Special Weather Statement Special Weather Statement        SOUTHEAST SUFFOLK  -  Special Weather Statement Special Weather Statement        SOUTHERN NASSAU  -  Special Weather Statement Special Weather Statement        SOUTHWEST SUFFOLK  -  Special Weather Statement Special Weather Statement      

Active alerts

Northern Nassau
  Details for Northern Nassau Special Weather Statement
Southern Nassau
  Details for Southern Nassau Special Weather Statement
Northwest Suffolk
  Details for Northwest Suffolk Special Weather Statement
Southwest Suffolk
  Details for Southwest Suffolk Special Weather Statement
Northeast Suffolk
  Details for Northeast Suffolk Special Weather Statement
Southeast Suffolk
  Details for Southeast Suffolk Special Weather Statement


WXM80 ListenWXM80 Stop

You find our weather info also at:

UK Metoffice

WeatherCloud

Weather Underground

Northeastern Weather Network

AWEKAS

Citizen Weather Observer Program (CWOP)

HAMweather, WeatherForYou, PWS Weather


Weather Underground History page Text

Daily Summary for July 30, 2016 Units:  English    Metric   Both
« Previous Day
Next Day »
Daily Weekly Monthly Yearly Custom
  High: Low: Average:
Temperature: 84.8 °F 69.5 °F 75.7 °F
Dew Point: 76.6 °F 67.7 °F 71.7 °F
Humidity: 97 % 72 % 88 %
Wind Speed: 4.0 mph 0.0 mph 0.6 mph
Wind Gust: 11.5 mph - -
Wind:- - ESE
Pressure: 30.03 in 29.90 in -
Precipitation: 0.05 in    
Historical Graphs
 
 
Tabular Data for July 30, 2016
Time Temperature Dew Point Pressure Wind Wind Speed Wind Gust Humidity Rainfall Rate (Hourly)
00:04 72.5 °F 69.1 °F 29.90 in Calm     89 % 0.00 in
00:09 72.4 °F 69.3 °F 29.90 in Calm     90 % 0.00 in
00:14 72.3 °F 68.9 °F 29.90 in Calm     89 % 0.00 in
00:19 72.2 °F 68.8 °F 29.91 in Calm     89 % 0.00 in
00:24 72.1 °F 69.0 °F 29.91 in Calm     90 % 0.00 in
00:29 72.0 °F 68.9 °F 29.90 in Calm     90 % 0.00 in
00:34 71.9 °F 68.8 °F 29.91 in Calm     90 % 0.00 in
00:40 71.8 °F 68.7 °F 29.90 in Calm     90 % 0.00 in
00:45 71.7 °F 68.6 °F 29.90 in Calm     90 % 0.00 in
00:50 71.6 °F 68.5 °F 29.90 in Calm     90 % 0.00 in
00:55 71.5 °F 68.4 °F 29.90 in Calm     90 % 0.00 in
01:00 71.4 °F 68.3 °F 29.90 in Calm     90 % 0.00 in
01:05 71.3 °F 68.2 °F 29.90 in Calm     90 % 0.00 in
01:10 71.3 °F 68.5 °F 29.90 in Calm     91 % 0.00 in
01:15 71.2 °F 68.4 °F 29.90 in Calm     91 % 0.00 in
01:20 71.2 °F 68.4 °F 29.90 in Calm     91 % 0.00 in
01:25 71.1 °F 68.3 °F 29.90 in Calm     91 % 0.00 in
01:31 71.0 °F 68.6 °F 29.90 in Calm     92 % 0.00 in
01:36 71.0 °F 68.2 °F 29.90 in Calm     91 % 0.00 in
01:41 70.9 °F 68.1 °F 29.90 in Calm     91 % 0.00 in
01:45 70.8 °F 68.4 °F 29.90 in Calm     92 % 0.00 in
01:51 70.8 °F 68.4 °F 29.90 in Calm     92 % 0.00 in
01:55 70.7 °F 68.3 °F 29.90 in Calm     92 % 0.00 in
02:01 70.7 °F 68.3 °F 29.90 in Calm     92 % 0.00 in
02:06 70.6 °F 68.2 °F 29.90 in Calm     92 % 0.00 in
02:11 70.6 °F 68.2 °F 29.90 in Calm     92 % 0.00 in
02:16 70.5 °F 68.1 °F 29.90 in Calm     92 % 0.00 in
02:21 70.4 °F 68.0 °F 29.90 in Calm     92 % 0.00 in
02:26 70.4 °F 68.0 °F 29.90 in Calm     92 % 0.00 in
02:31 70.3 °F 67.9 °F 29.90 in Calm     92 % 0.00 in
02:36 70.3 °F 67.9 °F 29.90 in Calm     92 % 0.00 in
02:41 70.2 °F 68.1 °F 29.90 in Calm     93 % 0.00 in
02:46 70.2 °F 68.1 °F 29.90 in Calm     93 % 0.00 in
02:51 70.1 °F 68.0 °F 29.90 in Calm     93 % 0.00 in
02:57 70.1 °F 68.0 °F 29.90 in Calm     93 % 0.00 in
03:02 70.1 °F 68.0 °F 29.90 in SW 0.5 mph 3.5 mph 93 % 0.00 in
03:07 70.2 °F 68.1 °F 29.90 in SW 0.6 mph 2.3 mph 93 % 0.00 in
03:12 70.2 °F 68.4 °F 29.90 in SW 0.6 mph 2.3 mph 94 % 0.00 in
03:17 70.2 °F 68.4 °F 29.90 in Calm     94 % 0.00 in
03:22 70.3 °F 68.5 °F 29.90 in Calm     94 % 0.00 in
03:27 70.3 °F 68.5 °F 29.91 in Calm     94 % 0.00 in
03:32 70.3 °F 68.5 °F 29.91 in Calm     94 % 0.00 in
03:37 70.2 °F 68.4 °F 29.91 in Calm     94 % 0.00 in
03:42 70.2 °F 68.4 °F 29.90 in Calm     94 % 0.00 in
03:48 70.2 °F 68.4 °F 29.90 in Calm     94 % 0.00 in
03:53 70.2 °F 68.4 °F 29.90 in Calm     94 % 0.00 in
03:58 70.2 °F 68.4 °F 29.91 in Calm     94 % 0.00 in
04:03 70.1 °F 68.3 °F 29.91 in Calm     94 % 0.00 in
04:08 70.2 °F 68.4 °F 29.91 in Calm     94 % 0.00 in
04:13 70.2 °F 68.4 °F 29.91 in SW 1.0 mph 3.5 mph 94 % 0.00 in
04:18 70.3 °F 68.8 °F 29.92 in West 1.7 mph 3.5 mph 95 % 0.00 in
04:23 70.4 °F 68.9 °F 29.91 in Calm   1.2 mph 95 % 0.00 in
04:28 70.6 °F 69.1 °F 29.91 in Calm     95 % 0.00 in
04:33 70.6 °F 69.1 °F 29.91 in Calm     95 % 0.00 in
04:39 70.6 °F 69.1 °F 29.91 in Calm     95 % 0.00 in
04:44 70.6 °F 69.1 °F 29.91 in Calm     95 % 0.00 in
04:49 70.5 °F 69.0 °F 29.91 in Calm     95 % 0.00 in
04:54 70.4 °F 68.9 °F 29.91 in Calm     95 % 0.00 in
04:59 70.3 °F 68.5 °F 29.91 in Calm     94 % 0.00 in
05:04 70.2 °F 68.4 °F 29.91 in Calm     94 % 0.00 in
05:09 70.1 °F 68.3 °F 29.92 in Calm     94 % 0.00 in
05:14 70.1 °F 68.3 °F 29.92 in Calm     94 % 0.00 in
05:19 70.0 °F 68.2 °F 29.92 in Calm     94 % 0.00 in
05:24 69.9 °F 68.1 °F 29.92 in Calm     94 % 0.00 in
05:30 69.9 °F 68.1 °F 29.93 in Calm     94 % 0.00 in
05:35 69.8 °F 68.0 °F 29.93 in West 0.3 mph 1.2 mph 94 % 0.00 in
05:40 69.8 °F 68.0 °F 29.93 in Calm     94 % 0.00 in
05:45 69.7 °F 67.9 °F 29.93 in Calm     94 % 0.00 in
05:50 69.7 °F 67.9 °F 29.93 in Calm     94 % 0.00 in
05:55 69.6 °F 67.8 °F 29.93 in Calm     94 % 0.00 in
06:00 69.6 °F 67.8 °F 29.93 in Calm     94 % 0.00 in
06:05 69.6 °F 67.8 °F 29.93 in Calm     94 % 0.00 in
06:10 69.5 °F 67.7 °F 29.93 in Calm     94 % 0.00 in
06:15 69.5 °F 67.7 °F 29.93 in Calm     94 % 0.00 in
06:21 69.5 °F 67.7 °F 29.94 in Calm     94 % 0.00 in
06:26 69.5 °F 68.0 °F 29.94 in Calm     95 % 0.00 in
06:31 69.6 °F 68.1 °F 29.94 in Calm     95 % 0.00 in
06:36 69.7 °F 68.2 °F 29.94 in Calm     95 % 0.00 in
06:41 69.9 °F 68.7 °F 29.94 in Calm     96 % 0.00 in
06:46 70.1 °F 68.9 °F 29.94 in Calm     96 % 0.00 in
06:51 70.3 °F 69.1 °F 29.94 in Calm   1.0 mph 96 % 0.00 in
06:56 70.6 °F 69.4 °F 29.95 in Calm     96 % 0.00 in
07:01 70.9 °F 70.0 °F 29.95 in NE 0.6 mph 1.0 mph 97 % 0.00 in
07:06 71.7 °F 70.8 °F 29.95 in ENE 2.7 mph 5.8 mph 97 % 0.00 in
07:11 72.2 °F 71.3 °F 29.95 in NE 1.4 mph 3.5 mph 97 % 0.00 in
07:16 72.6 °F 71.7 °F 29.96 in ENE 2.1 mph 3.5 mph 97 % 0.00 in
07:21 72.5 °F 71.3 °F 29.96 in ENE 1.1 mph 3.5 mph 96 % 0.00 in
07:26 72.8 °F 71.3 °F 29.96 in ENE 2.5 mph 4.6 mph 95 % 0.00 in
07:31 73.1 °F 71.0 °F 29.96 in NE 2.9 mph 5.8 mph 93 % 0.00 in
07:36 73.3 °F 70.5 °F 29.96 in ENE 2.4 mph 5.0 mph 91 % 0.00 in
07:41 73.5 °F 70.4 °F 29.97 in ENE 1.5 mph 3.5 mph 90 % 0.00 in
07:46 73.8 °F 70.0 °F 29.97 in ENE 1.1 mph 2.3 mph 88 % 0.00 in
07:51 74.0 °F 70.2 °F 29.97 in NNE 0.6 mph 2.0 mph 88 % 0.00 in
07:57 74.1 °F 70.3 °F 29.97 in NE 0.6 mph 1.2 mph 88 % 0.00 in
08:02 74.2 °F 70.4 °F 29.97 in NE 0.2 mph 2.3 mph 88 % 0.00 in
08:07 74.4 °F 70.3 °F 29.97 in NE 1.7 mph 5.0 mph 87 % 0.00 in
08:12 74.5 °F 70.0 °F 29.97 in East 1.4 mph 2.3 mph 86 % 0.00 in
08:17 74.7 °F 70.2 °F 29.97 in East 3.6 mph 8.1 mph 86 % 0.00 in
08:22 74.8 °F 69.6 °F 29.97 in ENE 1.1 mph 3.0 mph 84 % 0.00 in
08:27 75.0 °F 69.8 °F 29.98 in ENE 1.4 mph 3.5 mph 84 % 0.00 in
08:32 75.2 °F 70.0 °F 29.98 in ENE 0.8 mph 2.3 mph 84 % 0.00 in
08:37 75.5 °F 70.0 °F 29.98 in East 1.8 mph 4.6 mph 83 % 0.00 in
08:42 75.7 °F 69.8 °F 29.98 in East 1.3 mph 2.3 mph 82 % 0.00 in
08:48 75.8 °F 69.6 °F 29.98 in ENE 2.5 mph 3.5 mph 81 % 0.00 in
08:53 75.9 °F 69.6 °F 29.98 in ENE 1.4 mph 3.5 mph 81 % 0.00 in
08:58 75.9 °F 69.3 °F 29.98 in ENE 1.1 mph 3.5 mph 80 % 0.00 in
09:03 75.9 °F 69.6 °F 29.98 in NE 2.1 mph 5.0 mph 81 % 0.00 in
09:08 75.9 °F 69.3 °F 29.99 in NE 1.8 mph 6.0 mph 80 % 0.00 in
09:13 75.9 °F 69.6 °F 29.99 in NE 0.4 mph 1.2 mph 81 % 0.00 in
09:18 76.0 °F 69.4 °F 29.98 in ENE 1.4 mph 3.5 mph 80 % 0.00 in
09:23 76.0 °F 69.7 °F 29.99 in NE 0.9 mph 2.0 mph 81 % 0.00 in
09:28 76.0 °F 69.0 °F 29.99 in NE 0.6 mph 3.5 mph 79 % 0.00 in
09:34 76.0 °F 69.0 °F 29.99 in NNE 2.1 mph 3.5 mph 79 % 0.00 in
09:39 76.2 °F 69.6 °F 29.99 in NE 0.7 mph 4.6 mph 80 % 0.00 in
09:44 76.4 °F 70.1 °F 29.99 in NE 0.6 mph 3.5 mph 81 % 0.00 in
09:49 76.4 °F 69.4 °F 29.99 in ENE 4.0 mph 4.6 mph 79 % 0.00 in
09:54 76.4 °F 69.8 °F 29.98 in NE 0.8 mph 2.3 mph 80 % 0.00 in
09:59 76.5 °F 69.5 °F 29.98 in ENE 0.4 mph 2.3 mph 79 % 0.00 in
10:04 76.6 °F 69.6 °F 29.98 in NE 2.2 mph 4.6 mph 79 % 0.00 in
10:09 76.7 °F 70.1 °F 29.98 in ENE 0.9 mph 3.5 mph 80 % 0.00 in
10:14 77.0 °F 70.0 °F 29.98 in NE 2.6 mph 4.0 mph 79 % 0.00 in
10:19 77.2 °F 70.2 °F 29.98 in ENE 2.1 mph 4.0 mph 79 % 0.00 in
10:25 77.3 °F 70.6 °F 29.98 in ENE 0.6 mph 1.2 mph 80 % 0.00 in
10:30 77.6 °F 70.2 °F 29.98 in NE 2.0 mph 3.5 mph 78 % 0.00 in
10:35 77.9 °F 70.5 °F 29.98 in ENE 3.4 mph 4.6 mph 78 % 0.00 in
10:40 78.1 °F 70.7 °F 29.99 in NE 2.3 mph 5.8 mph 78 % 0.00 in
10:45 78.3 °F 70.9 °F 29.99 in NE 2.0 mph 4.6 mph 78 % 0.00 in
10:50 78.6 °F 71.2 °F 29.99 in NE 2.0 mph 3.5 mph 78 % 0.00 in
10:55 79.2 °F 72.5 °F 29.99 in NE 0.7 mph 2.3 mph 80 % 0.00 in
11:00 79.9 °F 72.8 °F 29.99 in NE 0.6 mph 2.0 mph 79 % 0.00 in
11:05 80.7 °F 73.2 °F 29.99 in ENE 2.3 mph 3.5 mph 78 % 0.00 in
11:10 80.9 °F 73.0 °F 29.99 in ENE 2.1 mph 4.0 mph 77 % 0.00 in
11:15 81.0 °F 72.3 °F 29.99 in ENE 2.3 mph 4.6 mph 75 % 0.00 in
11:20 80.9 °F 72.6 °F 29.99 in ENE 2.6 mph 7.0 mph 76 % 0.00 in
11:25 80.4 °F 72.1 °F 29.99 in NE 2.1 mph 3.5 mph 76 % 0.00 in
11:31 80.5 °F 72.2 °F 29.99 in NE 2.0 mph 6.9 mph 76 % 0.00 in
11:36 80.5 °F 72.6 °F 30.00 in NE 1.0 mph 6.0 mph 77 % 0.00 in
11:41 80.8 °F 72.9 °F 29.99 in NE 3.0 mph 7.0 mph 77 % 0.00 in
11:46 81.4 °F 73.9 °F 29.99 in ENE 2.0 mph 8.0 mph 78 % 0.00 in
11:51 81.7 °F 73.0 °F 29.99 in NE 3.0 mph 7.0 mph 75 % 0.00 in
11:56 82.1 °F 73.7 °F 29.99 in ENE 1.0 mph 8.0 mph 76 % 0.00 in
12:01 82.5 °F 74.2 °F 29.99 in ENE 3.3 mph 6.9 mph 76 % 0.00 in
12:06 83.0 °F 74.3 °F 29.99 in NE 2.0 mph 7.0 mph 75 % 0.00 in
12:11 83.4 °F 74.2 °F 29.99 in ENE 2.0 mph 7.0 mph 74 % 0.00 in
12:16 83.8 °F 74.6 °F 29.99 in ENE 2.5 mph 6.9 mph 74 % 0.00 in
12:21 83.7 °F 74.1 °F 29.99 in ENE 2.0 mph 8.0 mph 73 % 0.00 in
12:26 83.6 °F 74.4 °F 29.99 in NE 2.0 mph 5.0 mph 74 % 0.00 in
12:31 83.8 °F 75.0 °F 29.99 in ENE 0.6 mph 2.3 mph 75 % 0.00 in
12:36 84.1 °F 74.5 °F 29.99 in ENE 3.0 mph 5.0 mph 73 % 0.00 in
12:41 84.0 °F 74.4 °F 29.99 in ENE 3.0 mph 6.0 mph 73 % 0.00 in
12:46 84.0 °F 74.8 °F 29.98 in ENE 0.4 mph 2.0 mph 74 % 0.00 in
12:51 84.2 °F 75.1 °F 29.98 in ENE 1.0 mph 3.0 mph 74 % 0.00 in
12:56 84.5 °F 74.5 °F 29.98 in ENE 2.0 mph 5.0 mph 72 % 0.00 in
13:01 84.8 °F 75.6 °F 29.98 in NE 3.0 mph 3.5 mph 74 % 0.00 in
13:06 84.7 °F 74.7 °F 29.98 in ENE 1.0 mph 5.0 mph 72 % 0.00 in
13:11 84.5 °F 74.4 °F 29.99 in ENE 2.0 mph 6.0 mph 72 % 0.00 in
13:16 83.7 °F 74.5 °F 29.99 in ENE 0.4 mph 2.3 mph 74 % 0.00 in
13:21 83.0 °F 73.9 °F 29.99 in ENE 1.0 mph 4.0 mph 74 % 0.00 in
13:26 82.6 °F 74.3 °F 29.99 in NE 2.0 mph 5.0 mph 76 % 0.00 in
13:31 82.2 °F 74.3 °F 29.99 in Calm   2.3 mph 77 % 0.00 in
13:36 81.8 °F 73.9 °F 29.99 in NE 1.0 mph 3.0 mph 77 % 0.00 in
13:41 81.6 °F 74.1 °F 29.99 in Calm   1.0 mph 78 % 0.00 in
13:46 81.0 °F 73.5 °F 30.00 in SE 3.6 mph 4.0 mph 78 % 0.00 in
13:51 80.8 °F 73.6 °F 29.99 in South 1.0 mph 4.0 mph 79 % 0.00 in
13:56 80.2 °F 72.4 °F 29.99 in SSE 3.0 mph 9.0 mph 77 % 0.00 in
14:01 79.4 °F 72.7 °F 29.98 in SSE 0.6 mph 2.3 mph 80 % 0.00 in
14:06 79.1 °F 73.1 °F 29.99 in Calm   1.0 mph 82 % 0.00 in
14:11 78.8 °F 72.1 °F 29.98 in Calm   5.0 mph 80 % 0.00 in
14:16 78.6 °F 71.9 °F 29.98 in ENE 1.0 mph 3.5 mph 80 % 0.00 in
14:21 79.2 °F 73.9 °F 29.98 in ESE 1.0 mph 3.0 mph 84 % 0.00 in
14:26 79.3 °F 73.3 °F 29.97 in Calm   1.0 mph 82 % 0.00 in
14:31 79.4 °F 73.1 °F 29.97 in Calm   1.0 mph 81 % 0.00 in
14:36 80.0 °F 75.0 °F 29.97 in Calm   2.0 mph 85 % 0.00 in
14:41 80.5 °F 75.6 °F 29.97 in SE 1.0 mph 3.0 mph 85 % 0.00 in
14:46 81.3 °F 75.6 °F 29.96 in SE 1.2 mph 3.0 mph 83 % 0.00 in
14:51 81.9 °F 76.6 °F 29.96 in Calm   4.0 mph 84 % 0.00 in
14:56 82.6 °F 76.6 °F 29.96 in SE 1.0 mph 8.0 mph 82 % 0.00 in
15:01 82.7 °F 75.9 °F 29.96 in SSE 0.9 mph 4.6 mph 80 % 0.00 in
15:06 82.8 °F 76.4 °F 29.96 in SE 2.0 mph 5.0 mph 81 % 0.00 in
15:11 82.6 °F 75.5 °F 29.96 in SE 1.0 mph 7.0 mph 79 % 0.00 in
15:16 82.4 °F 76.0 °F 29.96 in SE 1.0 mph 5.0 mph 81 % 0.00 in
15:21 82.3 °F 75.8 °F 29.96 in SE 1.0 mph 6.0 mph 81 % 0.00 in
15:26 82.3 °F 75.9 °F 29.96 in SE 1.0 mph 5.0 mph 81 % 0.00 in
15:31 82.3 °F 75.9 °F 29.95 in SE 2.0 mph 5.0 mph 81 % 0.00 in
15:36 82.6 °F 76.5 °F 29.95 in Calm   3.0 mph 82 % 0.00 in
15:41 82.6 °F 75.8 °F 29.95 in SE 2.0 mph 6.0 mph 80 % 0.00 in
15:46 82.4 °F 75.2 °F 29.95 in SE 3.0 mph 8.0 mph 79 % 0.00 in
15:51 82.0 °F 74.5 °F 29.95 in SE 3.2 mph 11.5 mph 78 % 0.00 in
15:56 81.8 °F 75.0 °F 29.95 in SE 2.0 mph 7.0 mph 80 % 0.00 in
16:01 81.4 °F 74.6 °F 29.95 in SSE 2.6 mph 8.1 mph 80 % 0.00 in
16:06 81.1 °F 74.7 °F 29.96 in SSE 1.2 mph 3.5 mph 81 % 0.00 in
16:11 80.9 °F 74.5 °F 29.96 in SE 1.9 mph 4.0 mph 81 % 0.00 in
16:16 80.8 °F 74.8 °F 29.96 in SE 2.5 mph 4.6 mph 82 % 0.00 in
16:21 80.7 °F 75.1 °F 29.96 in SSE 1.0 mph 3.5 mph 83 % 0.00 in
16:26 80.5 °F 74.5 °F 29.96 in SSE 0.3 mph 3.0 mph 82 % 0.00 in
16:31 80.3 °F 74.3 °F 29.97 in Calm   1.2 mph 82 % 0.00 in
16:36 80.2 °F 74.6 °F 29.97 in SW 1.2 mph 2.3 mph 83 % 0.00 in
16:41 80.1 °F 74.5 °F 29.97 in SE 0.1 mph 1.2 mph 83 % 0.00 in
16:46 80.0 °F 74.4 °F 29.97 in SE 0.4 mph 2.3 mph 83 % 0.00 in
16:51 79.8 °F 74.5 °F 29.97 in Calm   1.2 mph 84 % 0.00 in
16:57 79.7 °F 74.4 °F 29.97 in Calm   1.2 mph 84 % 0.01 in
17:02 79.5 °F 74.6 °F 29.97 in Calm     85 % 0.01 in
17:07 79.3 °F 74.7 °F 29.97 in Calm     86 % 0.02 in
17:12 79.2 °F 74.6 °F 29.97 in Calm   1.0 mph 86 % 0.02 in
17:17 79.0 °F 74.8 °F 29.98 in Calm   3.5 mph 87 % 0.02 in
17:22 78.8 °F 74.9 °F 29.98 in WSW 0.1 mph 1.2 mph 88 % 0.02 in
17:27 78.7 °F 74.8 °F 29.98 in Calm     88 % 0.02 in
17:32 78.5 °F 74.6 °F 29.98 in Calm   1.2 mph 88 % 0.02 in
17:37 78.4 °F 74.5 °F 29.98 in WSW 0.1 mph   88 % 0.02 in
17:42 78.3 °F 74.8 °F 29.98 in WSW 0.2 mph 1.2 mph 89 % 0.02 in
17:48 78.1 °F 74.6 °F 29.99 in Calm   1.2 mph 89 % 0.02 in
17:53 77.9 °F 74.4 °F 29.99 in WSW 0.4 mph 1.2 mph 89 % 0.02 in
17:58 77.8 °F 74.3 °F 29.99 in WSW 0.1 mph 1.2 mph 89 % 0.01 in
18:03 77.7 °F 74.2 °F 29.99 in Calm     89 % 0.01 in
18:08 77.6 °F 74.4 °F 29.98 in Calm     90 % 0.00 in
18:13 77.5 °F 74.3 °F 29.98 in Calm     90 % 0.00 in
18:18 77.4 °F 74.2 °F 29.99 in Calm   1.2 mph 90 % 0.00 in
18:23 77.3 °F 74.1 °F 29.99 in WSW 0.3 mph 1.0 mph 90 % 0.00 in
18:28 77.2 °F 74.0 °F 29.99 in WSW 0.3 mph 2.3 mph 90 % 0.00 in
18:33 77.1 °F 73.9 °F 29.99 in WSW 0.2 mph 2.0 mph 90 % 0.00 in
18:38 77.0 °F 73.8 °F 29.99 in Calm     90 % 0.00 in
18:43 76.9 °F 73.7 °F 30.00 in Calm     90 % 0.00 in
18:49 76.9 °F 74.1 °F 30.00 in Calm     91 % 0.00 in
18:54 76.8 °F 74.0 °F 30.00 in Calm     91 % 0.00 in
18:59 76.7 °F 73.9 °F 30.00 in Calm     91 % 0.00 in
19:04 76.7 °F 73.9 °F 30.00 in Calm     91 % 0.01 in
19:09 76.6 °F 73.8 °F 30.00 in WSW 0.1 mph 1.2 mph 91 % 0.01 in
19:14 76.5 °F 73.7 °F 30.00 in Calm     91 % 0.01 in
19:19 76.5 °F 73.7 °F 30.00 in Calm     91 % 0.01 in
19:24 76.4 °F 73.9 °F 30.01 in Calm     92 % 0.01 in
19:29 76.4 °F 73.9 °F 30.01 in Calm     92 % 0.01 in
19:34 76.3 °F 73.8 °F 30.00 in Calm   1.2 mph 92 % 0.01 in
19:40 76.2 °F 73.7 °F 30.00 in Calm     92 % 0.01 in
19:45 76.1 °F 73.6 °F 30.01 in Calm     92 % 0.01 in
19:50 76.0 °F 73.5 °F 30.00 in Calm     92 % 0.01 in
19:55 75.9 °F 73.4 °F 30.01 in Calm     92 % 0.01 in
20:00 75.8 °F 73.3 °F 30.01 in Calm     92 % 0.01 in
20:05 75.8 °F 73.3 °F 30.01 in Calm     92 % 0.00 in
20:10 75.7 °F 73.2 °F 30.01 in Calm     92 % 0.00 in
20:15 75.6 °F 73.1 °F 30.01 in Calm     92 % 0.00 in
20:20 75.5 °F 73.0 °F 30.01 in Calm     92 % 0.00 in
20:25 75.5 °F 73.0 °F 30.01 in Calm     92 % 0.00 in
20:30 75.4 °F 72.9 °F 30.02 in Calm     92 % 0.00 in
20:36 75.4 °F 73.2 °F 30.02 in Calm     93 % 0.00 in
20:41 75.4 °F 73.2 °F 30.02 in Calm     93 % 0.00 in
20:46 75.3 °F 73.2 °F 30.02 in Calm     93 % 0.00 in
20:51 75.3 °F 73.1 °F 30.02 in Calm     93 % 0.00 in
20:56 75.2 °F 73.4 °F 30.02 in Calm     94 % 0.00 in
21:01 75.2 °F 73.4 °F 30.02 in Calm     94 % 0.00 in
21:06 75.1 °F 73.3 °F 30.02 in Calm     94 % 0.01 in
21:11 75.1 °F 73.3 °F 30.02 in Calm     94 % 0.01 in
21:16 75.0 °F 73.2 °F 30.02 in Calm     94 % 0.01 in
21:21 75.0 °F 73.2 °F 30.02 in Calm     94 % 0.01 in
21:26 74.9 °F 73.1 °F 30.02 in Calm     94 % 0.01 in
21:31 74.9 °F 73.1 °F 30.02 in Calm     94 % 0.01 in
21:36 74.9 °F 73.1 °F 30.02 in Calm     94 % 0.01 in
21:41 74.9 °F 73.1 °F 30.02 in Calm     94 % 0.01 in
21:46 74.8 °F 73.0 °F 30.03 in Calm     94 % 0.01 in
21:52 74.8 °F 73.0 °F 30.02 in Calm     94 % 0.01 in
21:57 74.8 °F 73.0 °F 30.03 in Calm     94 % 0.01 in
22:02 74.7 °F 72.9 °F 30.02 in Calm     94 % 0.01 in
22:07 74.6 °F 72.8 °F 30.02 in Calm     94 % 0.00 in
22:12 74.6 °F 72.8 °F 30.02 in Calm     94 % 0.00 in
22:17 74.6 °F 72.8 °F 30.02 in Calm     94 % 0.00 in
22:23 74.5 °F 72.7 °F 30.02 in Calm     94 % 0.00 in
22:28 74.5 °F 72.7 °F 30.02 in Calm     94 % 0.00 in
22:33 74.5 °F 73.0 °F 30.01 in Calm     95 % 0.01 in
22:38 74.5 °F 73.0 °F 30.01 in Calm     95 % 0.01 in
22:43 74.4 °F 72.9 °F 30.01 in Calm     95 % 0.01 in
22:48 74.4 °F 72.9 °F 30.02 in Calm     95 % 0.01 in
22:53 74.4 °F 72.9 °F 30.01 in Calm     95 % 0.01 in
22:58 74.4 °F 72.9 °F 30.01 in Calm     95 % 0.01 in
23:03 74.3 °F 72.8 °F 30.01 in Calm     95 % 0.01 in
23:08 74.4 °F 72.9 °F 30.01 in Calm     95 % 0.01 in
23:14 74.3 °F 72.8 °F 30.01 in Calm     95 % 0.01 in
23:19 74.3 °F 72.8 °F 30.00 in Calm     95 % 0.01 in
23:24 74.3 °F 72.8 °F 30.00 in Calm     95 % 0.01 in
23:29 74.3 °F 72.8 °F 30.00 in Calm     95 % 0.00 in
23:34 74.2 °F 72.7 °F 30.01 in Calm     95 % 0.00 in
23:39 74.2 °F 72.7 °F 30.01 in Calm     95 % 0.00 in
23:44 74.2 °F 72.7 °F 30.01 in Calm     95 % 0.00 in
23:49 74.2 °F 72.7 °F 30.01 in Calm     95 % 0.00 in
23:54 74.2 °F 72.7 °F 30.01 in Calm     95 % 0.00 in
23:59 74.1 °F 72.6 °F 30.01 in Calm     95 % 0.00 in
Crab Meadow Weather
Compliments of Weather Underground - 3 mb

Script developed by  Jim McMurry - jmcmurry@mwt.net Adapted for the template by  Wim van der Kuil - Leuven-Template.eu

Humidity: Humidity is the amount of water vapor in the air. The term "humidity" refers to relative humidity. Relative humidity is defined as the amount of water vapor in a sample of air compared to the maximum amount of water vapor the air can hold at any specific temperature in a form of 0 to 100%. Relative humidity is important in forecasting weather. Humidity indicates the likelihood of precipitation, dew, or fog. High humidity makes people feel hotter outside in the summer because it reduces the effectiveness of sweating to cool the body by preventing the evaporation of perspiration from the skin.